sat.trackr.live / text

‹ back to catalog

STARLINK-32840

NORAD 63363 · 2025-063A

PAYLOAD ACTIVE UNKNOWN

§ Identity

Operator
Country
US
Launch date
2025-03-26
Launch site
AFWTR
Launch vehicle
Mass (kg)
RCS (m²)

Purposes: comms

External: N2YO · Heavens-Above · Gunter

§ Orbital elements

Epoch: 2026-09-20T07:16:53.807520Z

Period
93.85 min
Inclination
53.1567°
Eccentricity
0.0001184
Mean motion
15.34393175 rev/d
Perigee alt
461.9 km
Apogee alt
463.5 km
Semi-major
6,840.9 km
B*
4.7820e-4
RAAN
222.2779°
Arg perigee
85.1172°
Mean anomaly
274.9966°
Rev number
8,462

§ Raw data

STARLINK-328401 63363U 25063A   26263.30340055  .00015811  00000+0  47820-3 0  99952 63363  53.1567 222.2779 0001184  85.1172 274.9966 15.34393175 84623

JSON: /api/v1/satellites/63363 · /tle

For live sub-satellite position, see the globe view (requires WebGL).

§ Visibility from observer

Set your observer location to see the next 7 days of passes ≥ 10°. The values pass through the URL so the page stays shareable.

No JS? Fill the form by hand. The geolocation button needs JavaScript.